Total_Precipitation_Accumulation
0.03 0.03 0.03 0.06 0.16 0.35 0.55 0.46 0.42 0.43 0.47 0.40 0.38 0.38 0.51 0.66 0.91 1.64 1.00 0.54 0.36 0.26 0.31 0.28 0.36 0.32 0.29 0.32 0.39 0.46 0.58 0.59 0.64 0.65 0.62 0.57 0.57 0.55 0.56 0.62 0.67 0.82 0.98 1.00 1.03 1.16 1.33 1.49 1.55
0.03 0.04 0.06 0.10 0.24 0.49 0.61 0.46 0.48 0.44 0.42 0.42 0.39 0.39 0.43 0.54 0.44 0.52 0.44 0.43 0.36 0.26 0.28 0.25 0.31 0.36 0.31 0.32 0.40 0.49 0.61 0.65 0.79 0.77 0.63 0.58 0.57 0.59 0.62 0.67 0.71 0.87 1.05 1.12 1.15 1.19 1.23 1.28 1.37
0.02 0.03 0.07 0.15 0.31 0.44 0.59 0.48 0.53 0.48 0.41 0.41 0.47 0.51 0.57 0.67 0.60 0.57 0.50 0.46 0.42 0.34 0.30 0.28 0.30 0.33 0.33 0.36 0.42 0.54 0.65 0.72 0.83 0.72 0.66 0.68 0.66 0.62 0.64 0.70 0.76 0.85 1.07 1.16 1.12 1.08 1.05 1.11 1.22
0.03 0.05 0.09 0.21 0.34 0.31 0.47 0.52 0.51 0.54 0.48 0.45 0.49 0.66 0.67 0.64 0.60 0.59 0.55 0.55 0.48 0.43 0.36 0.29 0.33 0.34 0.40 0.44 0.48 0.64 0.68 0.75 0.81 0.78 0.78 0.79 0.80 0.76 0.73 0.80 0.88 0.92 1.03 1.12 1.10 1.10 1.12 1.15 1.24
0.03 0.06 0.12 0.26 0.30 0.25 0.36 0.44 0.58 0.62 0.59 0.52 0.57 0.86 1.08 0.94 0.84 0.77 0.62 0.58 0.61 0.51 0.44 0.34 0.37 0.44 0.50 0.56 0.59 0.76 0.82 0.87 0.92 0.96 0.93 0.89 0.89 0.87 0.85 0.89 0.95 1.01 1.02 1.03 1.08 1.15 1.17 1.15 1.25
0.03 0.06 0.19 0.30 0.27 0.25 0.33 0.44 0.52 0.57 0.51 0.48 0.63 1.08 1.61 1.35 1.06 1.11 0.99 0.72 0.70 0.57 0.49 0.44 0.44 0.57 0.70 0.74 0.74 0.86 0.88 0.97 1.02 1.08 1.06 0.96 0.89 0.84 0.85 0.90 0.95 1.03 1.10 1.06 1.01 1.00 1.06 1.16 1.27
0.04 0.10 0.20 0.29 0.37 0.35 0.38 0.43 0.53 0.53 0.52 0.61 0.86 1.33 1.75 1.58 1.27 1.29 1.25 0.96 0.86 0.71 0.59 0.53 0.52 0.71 0.93 0.97 0.90 0.90 0.89 0.97 1.07 1.21 1.23 1.08 0.95 0.87 0.89 0.93 0.98 1.05 1.07 0.98 0.91 0.91 0.97 1.08 1.23
0.03 0.07 0.16 0.23 0.44 0.44 0.37 0.42 0.48 0.47 0.56 0.75 0.98 1.32 1.66 1.61 1.36 1.22 1.18 1.14 1.09 1.05 0.86 0.74 0.75 0.85 0.96 0.98 1.02 0.98 0.96 1.07 1.18 1.27 1.28 1.19 1.09 0.99 1.00 0.96 1.04 1.06 1.11 1.06 1.01 1.00 1.02 1.04 1.12
0.03 0.08 0.15 0.25 0.42 0.44 0.38 0.39 0.41 0.42 0.50 0.77 0.87 0.92 1.25 1.37 1.29 1.33 1.32 1.23 1.22 1.22 1.29 1.21 1.12 1.12 1.12 1.09 1.11 1.19 1.18 1.21 1.24 1.30 1.26 1.20 1.17 1.26 1.24 1.09 1.16 1.21 1.31 1.35 1.27 1.21 1.19 1.14 1.18
0.05 0.13 0.17 0.20 0.25 0.31 0.38 0.42 0.39 0.45 0.51 0.75 1.05 1.00 1.00 1.20 1.39 1.53 1.58 1.48 1.44 1.47 1.59 1.62 1.61 1.58 1.53 1.45 1.61 1.67 1.48 1.40 1.35 1.47 1.33 1.29 1.57 1.66 1.47 1.57 1.61 1.64 1.62 1.62 1.57 1.45 1.36 1.27 1.21
0.07 0.12 0.17 0.22 0.18 0.23 0.31 0.38 0.35 0.49 0.67 0.73 1.09 1.43 1.29 1.38 1.72 2.02 1.88 1.90 1.96 1.88 1.68 1.63 1.90 2.02 2.08 2.18 2.07 2.05 2.00 1.94 1.86 1.97 1.84 1.83 2.02 1.94 1.93 1.98 1.88 1.81 1.81 1.78 1.89 1.70 1.36 1.27 1.44
0.09 0.12 0.16 0.18 0.15 0.17 0.21 0.33 0.39 0.54 0.85 0.95 1.21 1.49 1.84 1.79 1.99 2.12 2.23 2.27 2.24 2.26 2.06 1.84 1.91 1.99 2.15 2.36 2.36 2.33 2.23 2.16 2.09 2.19 2.03 2.20 2.38 2.45 2.42 2.47 2.23 2.16 2.15 2.26 2.26 2.13 1.81 1.60 1.60
0.13 0.11 0.12 0.16 0.14 0.13 0.21 0.33 0.37 0.47 0.62 0.84 1.08 1.29 1.68 1.74 1.80 2.14 2.48 2.80 2.81 2.64 2.48 2.31 2.10 2.05 2.22 2.53 2.70 2.68 2.70 2.54 2.59 2.72 2.51 2.49 2.53 2.56 2.86 2.84 3.00 2.64 2.60 2.72 2.69 2.46 2.33 2.12 1.95
0.09 0.09 0.10 0.14 0.13 0.14 0.21 0.28 0.36 0.40 0.51 0.62 0.74 0.98 1.29 1.53 1.79 2.32 2.78 3.11 3.41 3.25 2.90 2.63 2.47 2.33 2.33 2.48 2.82 2.94 2.80 2.83 2.88 2.99 2.90 2.87 2.90 2.99 3.30 3.41 3.43 3.20 3.24 3.42 3.47 3.23 2.97 2.69 2.61
0.08 0.09 0.10 0.11 0.14 0.13 0.17 0.31 0.38 0.44 0.48 0.57 0.66 0.85 1.21 1.67 1.92 2.54 3.13 3.46 3.73 3.47 3.30 3.03 2.89 2.88 2.70 2.66 2.96 3.08 3.00 2.95 3.02 3.21 3.28 3.18 3.26 3.55 3.64 3.96 3.91 3.69 3.68 3.74 3.71 3.92 3.86 3.32 2.98
0.10 0.13 0.16 0.14 0.13 0.11 0.15 0.34 0.43 0.47 0.54 0.65 0.75 0.94 1.26 1.66 1.97 2.26 2.69 3.11 3.59 3.68 3.44 3.26 2.92 2.89 3.12 3.17 3.45 3.40 3.48 3.63 3.59 3.64 3.82 3.77 3.80 3.90 3.93 3.96 4.03 3.95 3.94 4.23 4.38 4.32 4.23 3.98 3.58
0.12 0.12 0.14 0.16 0.14 0.12 0.12 0.27 0.45 0.45 0.49 0.66 0.79 1.13 1.54 1.68 1.95 2.02 2.35 2.65 3.01 3.10 3.20 3.26 3.17 3.14 3.19 3.42 3.85 3.99 4.22 4.39 4.56 4.61 4.81 4.71 4.48 4.39 4.45 4.41 4.56 4.40 4.47 4.46 4.31 4.72 4.66 4.50 4.09
0.07 0.09 0.11 0.15 0.14 0.13 0.14 0.23 0.46 0.56 0.59 0.73 0.86 1.06 1.40 1.54 1.96 2.20 2.34 2.37 2.74 3.00 3.16 3.29 3.46 3.66 3.64 3.73 4.05 4.53 4.76 4.91 5.24 5.29 5.29 5.37 5.36 5.19 5.20 5.16 5.19 5.06 4.92 4.80 4.75 4.86 4.65 4.48 4.19
0.06 0.08 0.10 0.12 0.12 0.14 0.21 0.35 0.48 0.63 0.70 0.89 1.12 1.19 1.24 1.45 1.96 2.39 2.51 2.60 2.92 3.15 3.31 3.27 3.48 3.88 4.15 4.57 4.61 4.87 5.37 5.70 5.80 5.86 5.83 5.76 5.70 5.71 5.56 5.40 5.52 5.38 5.11 4.87 4.82 4.81 4.69 4.32 4.28
0.04 0.07 0.10 0.13 0.15 0.17 0.29 0.47 0.52 0.65 0.78 1.04 1.27 1.30 1.27 1.46 1.81 2.26 2.47 2.81 3.11 3.21 3.43 3.53 3.65 4.14 4.64 5.23 5.80 6.20 6.65 6.67 6.77 6.70 6.55 6.21 6.07 6.01 5.83 5.85 5.67 5.48 5.34 5.06 4.85 4.81 4.70 4.34 4.39
0.04 0.06 0.09 0.12 0.18 0.22 0.33 0.59 0.68 0.78 0.92 1.12 1.24 1.22 1.29 1.54 1.87 2.15 2.45 2.82 3.13 3.26 3.47 3.61 3.93 4.58 5.45 6.05 6.56 7.12 7.47 7.16 6.86 6.56 6.45 6.34 6.29 6.23 6.15 6.13 5.86 5.64 5.38 5.03 4.75 4.65 4.56 4.42 4.41
0.06 0.07 0.08 0.10 0.18 0.31 0.35 0.69 1.00 1.10 1.24 1.17 1.22 1.35 1.50 1.66 1.84 2.11 2.40 2.69 2.95 3.28 3.41 3.64 4.28 4.97 5.63 6.28 6.93 7.49 7.74 7.73 7.47 6.89 6.41 6.02 5.76 5.57 5.53 5.58 5.46 5.28 4.96 4.71 4.39 4.29 4.24 4.38 4.19
0.07 0.08 0.09 0.12 0.19 0.31 0.36 0.67 1.24 1.52 1.58 1.49 1.52 1.58 1.61 1.64 1.79 2.00 2.24 2.47 2.58 2.96 3.42 3.75 4.40 5.10 5.75 6.53 7.28 7.68 7.87 7.85 7.48 6.70 5.91 5.37 5.07 4.81 4.64 4.69 4.60 4.45 4.24 4.06 3.99 4.03 3.96 3.89 3.73
0.07 0.10 0.14 0.19 0.27 0.42 0.42 0.67 1.37 1.79 1.90 1.86 1.80 1.78 1.71 1.66 1.66 1.75 2.00 2.17 2.43 2.81 3.25 3.75 4.12 4.75 5.51 6.14 6.68 6.85 7.00 6.94 6.51 6.08 5.58 5.20 4.72 4.26 3.92 3.82 3.74 3.57 3.41 3.39 3.42 3.51 3.51 3.55 3.54
0.08 0.17 0.37 0.53 0.59 0.55 0.43 0.71 1.41 1.72 1.64 1.64 1.66 1.74 1.72 1.57 1.60 1.83 2.07 2.04 2.34 2.69 3.12 3.61 4.03 4.46 5.02 5.55 6.03 6.26 6.42 6.34 5.85 5.40 4.96 4.55 4.05 3.66 3.34 3.14 3.09 2.97 2.91 2.90 3.07 3.19 3.13 3.11 3.16
0.08 0.17 0.44 0.68 0.71 0.72 0.69 1.10 1.64 1.69 1.53 1.38 1.38 1.44 1.58 1.62 1.65 1.75 1.86 1.96 2.29 2.59 2.89 3.31 3.65 4.04 4.28 4.54 4.96 5.25 5.44 5.32 4.96 4.48 3.98 3.67 3.35 3.02 2.83 2.71 2.64 2.55 2.48 2.43 2.63 2.77 2.83 2.82 2.87
0.12 0.16 0.25 0.34 0.42 0.73 1.12 1.45 1.84 1.81 1.71 1.52 1.36 1.36 1.50 1.49 1.55 1.69 1.84 1.99 2.20 2.56 3.03 3.25 3.28 3.48 3.70 3.99 4.16 4.21 4.32 4.24 4.01 3.70 3.37 3.07 2.77 2.48 2.33 2.27 2.28 2.25 2.23 2.27 2.45 2.50 2.44 2.50 2.53
0.11 0.15 0.21 0.35 0.68 0.98 1.28 1.83 2.21 2.30 2.28 2.12 1.69 1.53 1.50 1.52 1.57 1.66 1.78 2.01 2.09 2.14 2.53 2.91 2.97 3.07 3.17 3.31 3.38 3.30 3.41 3.33 3.28 3.11 2.85 2.59 2.40 2.18 2.11 2.06 2.06 2.09 2.05 2.07 2.19 2.28 2.32 2.30 2.26
0.17 0.18 0.23 0.36 0.51 0.96 1.42 2.07 2.29 2.59 2.68 2.55 2.12 1.91 1.90 1.85 1.74 1.71 1.73 1.80 1.95 2.03 2.19 2.46 2.70 2.74 2.82 2.99 3.00 2.89 2.99 2.98 2.99 2.85 2.65 2.51 2.47 2.34 2.17 2.05 2.11 2.10 2.02 1.99 2.01 1.95 2.03 2.12 2.15
0.16 0.21 0.31 0.57 0.63 0.72 1.26 2.28 2.57 2.73 2.63 2.35 2.15 1.98 1.88 1.78 1.65 1.62 1.59 1.59 1.67 1.86 2.10 2.27 2.42 2.44 2.53 2.67 2.79 2.85 2.89 2.81 2.71 2.52 2.41 2.33 2.21 2.07 2.03 2.01 2.05 2.02 1.92 1.90 1.83 1.72 1.78 1.88 1.96